Year,Month,Day,Hour,Minute,Value (Times are PST for temperature in C)
2017,09,28,00,00,11.70
2017,09,28,00,01,11.70
2017,09,28,00,02,11.70
2017,09,28,00,03,11.60
2017,09,28,00,04,11.60
2017,09,28,00,05,11.60
2017,09,28,00,06,11.60
2017,09,28,00,07,11.60
2017,09,28,00,08,11.60
2017,09,28,00,09,11.70
2017,09,28,00,10,11.70
2017,09,28,00,11,11.80
2017,09,28,00,12,11.90
2017,09,28,00,13,12.00
2017,09,28,00,14,12.00
2017,09,28,00,15,12.00
2017,09,28,00,16,12.10
2017,09,28,00,17,12.10
2017,09,28,00,18,12.10
2017,09,28,00,19,12.10
2017,09,28,00,20,12.00
2017,09,28,00,21,12.00
2017,09,28,00,22,11.90
2017,09,28,00,23,11.90
2017,09,28,00,24,11.90
2017,09,28,00,25,11.90
2017,09,28,00,26,11.90
2017,09,28,00,27,11.90
2017,09,28,00,28,11.90
2017,09,28,00,29,11.90
2017,09,28,00,30,11.80
2017,09,28,00,31,11.90
2017,09,28,00,32,11.90
2017,09,28,00,33,11.80
2017,09,28,00,34,11.80
2017,09,28,00,35,11.70
2017,09,28,00,36,11.70
2017,09,28,00,37,11.70
2017,09,28,00,38,11.70
2017,09,28,00,39,11.70
2017,09,28,00,40,11.80
2017,09,28,00,41,11.80
2017,09,28,00,42,11.80
2017,09,28,00,43,11.90
2017,09,28,00,44,11.90
2017,09,28,00,45,11.90
2017,09,28,00,46,12.00
2017,09,28,00,47,12.00
2017,09,28,00,48,12.00
2017,09,28,00,49,12.10
2017,09,28,00,50,12.10
2017,09,28,00,51,12.10
2017,09,28,00,52,12.00
2017,09,28,00,53,12.00
2017,09,28,00,54,11.90
2017,09,28,00,55,11.80
2017,09,28,00,56,11.80
2017,09,28,00,57,11.80
2017,09,28,00,58,11.80
2017,09,28,00,59,11.80
2017,09,28,01,00,11.80
2017,09,28,01,01,11.80
2017,09,28,01,02,11.80
2017,09,28,01,03,11.80
2017,09,28,01,04,11.80
2017,09,28,01,05,11.80
2017,09,28,01,06,11.70
2017,09,28,01,07,11.70
2017,09,28,01,08,11.60
2017,09,28,01,09,11.60
2017,09,28,01,10,11.50
2017,09,28,01,11,11.50
2017,09,28,01,12,11.60
2017,09,28,01,13,11.60
2017,09,28,01,14,11.60
2017,09,28,01,15,11.60
2017,09,28,01,16,11.60
2017,09,28,01,17,11.70
2017,09,28,01,18,11.70
2017,09,28,01,19,11.70
2017,09,28,01,20,11.80
2017,09,28,01,21,11.90
2017,09,28,01,22,12.00
2017,09,28,01,23,12.10
2017,09,28,01,24,12.10
2017,09,28,01,25,12.10
2017,09,28,01,26,12.10
2017,09,28,01,27,12.00
2017,09,28,01,28,12.00
2017,09,28,01,29,11.90
2017,09,28,01,30,11.80
2017,09,28,01,31,11.70
2017,09,28,01,32,11.60
2017,09,28,01,33,11.50
2017,09,28,01,34,11.40
2017,09,28,01,35,11.30
2017,09,28,01,36,11.30
2017,09,28,01,37,11.20
2017,09,28,01,38,11.20
2017,09,28,01,39,11.10
2017,09,28,01,40,11.10
2017,09,28,01,41,11.00
2017,09,28,01,42,11.00
2017,09,28,01,43,10.90
2017,09,28,01,44,10.80
2017,09,28,01,45,10.80
2017,09,28,01,46,10.80
2017,09,28,01,47,10.70
2017,09,28,01,48,10.70
2017,09,28,01,49,10.70
2017,09,28,01,50,10.70
2017,09,28,01,51,10.70
2017,09,28,01,52,10.70
2017,09,28,01,53,10.70
2017,09,28,01,54,10.80
2017,09,28,01,55,10.80
2017,09,28,01,56,10.80
2017,09,28,01,57,10.90
2017,09,28,01,58,10.90
2017,09,28,01,59,11.00
2017,09,28,02,00,11.10
2017,09,28,02,01,11.10
2017,09,28,02,02,11.10
2017,09,28,02,03,11.10
2017,09,28,02,04,11.10
2017,09,28,02,05,11.00
2017,09,28,02,06,10.90
2017,09,28,02,07,10.80
2017,09,28,02,08,10.70
2017,09,28,02,09,10.70
2017,09,28,02,10,10.60
2017,09,28,02,11,10.60
2017,09,28,02,12,10.60
2017,09,28,02,13,10.60
2017,09,28,02,14,10.60
2017,09,28,02,15,10.60
2017,09,28,02,16,10.50
2017,09,28,02,17,10.50
2017,09,28,02,18,10.50
2017,09,28,02,19,10.40
2017,09,28,02,20,10.40
2017,09,28,02,21,10.30
2017,09,28,02,22,10.30
2017,09,28,02,23,10.30
2017,09,28,02,24,10.30
2017,09,28,02,25,10.20
2017,09,28,02,26,10.20
2017,09,28,02,27,10.20
2017,09,28,02,28,10.20
2017,09,28,02,29,10.10
2017,09,28,02,30,10.10
2017,09,28,02,31,10.10
2017,09,28,02,32,10.10
2017,09,28,02,33,10.10
2017,09,28,02,34,10.10
2017,09,28,02,35,10.10
2017,09,28,02,36,10.10
2017,09,28,02,37,10.10
2017,09,28,02,38,10.10
2017,09,28,02,39,10.10
2017,09,28,02,40,10.00
2017,09,28,02,41,10.00
2017,09,28,02,42,10.00
2017,09,28,02,43,9.90
2017,09,28,02,44,9.90
2017,09,28,02,45,9.90
2017,09,28,02,46,9.90
2017,09,28,02,47,9.90
2017,09,28,02,48,10.00
2017,09,28,02,49,10.00
2017,09,28,02,50,10.00
2017,09,28,02,51,10.00
2017,09,28,02,52,10.10
2017,09,28,02,53,10.20
2017,09,28,02,54,10.30
2017,09,28,02,55,10.40
2017,09,28,02,56,10.40
2017,09,28,02,57,10.40
2017,09,28,02,58,10.40
2017,09,28,02,59,10.40
2017,09,28,03,00,10.30
2017,09,28,03,01,10.30
2017,09,28,03,02,10.30
2017,09,28,03,03,10.20
2017,09,28,03,04,10.20
2017,09,28,03,05,10.10
2017,09,28,03,06,10.10
2017,09,28,03,07,10.10
2017,09,28,03,08,10.10
2017,09,28,03,09,10.10
2017,09,28,03,10,10.00
2017,09,28,03,11,10.00
2017,09,28,03,12,10.00
2017,09,28,03,13,10.00
2017,09,28,03,14,10.00
2017,09,28,03,15,10.00
2017,09,28,03,16,10.00
2017,09,28,03,17,10.00
2017,09,28,03,18,10.00
2017,09,28,03,19,10.00
2017,09,28,03,20,10.00
2017,09,28,03,21,10.00
2017,09,28,03,22,10.00
2017,09,28,03,23,9.90
2017,09,28,03,24,9.90
2017,09,28,03,25,9.90
2017,09,28,03,26,9.90
2017,09,28,03,27,10.00
2017,09,28,03,28,10.00
2017,09,28,03,29,10.10
2017,09,28,03,30,10.10
2017,09,28,03,31,10.10
2017,09,28,03,32,10.10
2017,09,28,03,33,10.10
2017,09,28,03,34,10.10
2017,09,28,03,35,10.00
2017,09,28,03,36,10.00
2017,09,28,03,37,10.10
2017,09,28,03,38,10.20
2017,09,28,03,39,10.30
2017,09,28,03,40,10.30
2017,09,28,03,41,10.20
2017,09,28,03,42,10.10
2017,09,28,03,43,10.10
2017,09,28,03,44,10.00
2017,09,28,03,45,9.90
2017,09,28,03,46,9.90
2017,09,28,03,47,9.80
2017,09,28,03,48,9.80
2017,09,28,03,49,9.80
2017,09,28,03,50,9.80
2017,09,28,03,51,9.80
2017,09,28,03,52,9.80
2017,09,28,03,53,9.70
2017,09,28,03,54,9.70
2017,09,28,03,55,9.60
2017,09,28,03,56,9.60
2017,09,28,03,57,9.50
2017,09,28,03,58,9.50
2017,09,28,03,59,9.40
2017,09,28,04,00,9.40
2017,09,28,04,01,9.40
2017,09,28,04,02,9.50
2017,09,28,04,03,9.50
2017,09,28,04,04,9.60
2017,09,28,04,05,9.60
2017,09,28,04,06,9.70
2017,09,28,04,07,9.80
2017,09,28,04,08,9.80
2017,09,28,04,09,9.80
2017,09,28,04,10,9.80
2017,09,28,04,11,9.80
2017,09,28,04,12,9.90
2017,09,28,04,13,9.90
2017,09,28,04,14,10.10
2017,09,28,04,15,10.20
2017,09,28,04,16,10.30
2017,09,28,04,17,10.40
2017,09,28,04,18,10.40
2017,09,28,04,19,10.50
2017,09,28,04,20,10.50
2017,09,28,04,21,10.50
2017,09,28,04,22,10.50
2017,09,28,04,23,10.40
2017,09,28,04,24,10.40
2017,09,28,04,25,10.30
2017,09,28,04,26,10.20
2017,09,28,04,27,10.20
2017,09,28,04,28,10.10
2017,09,28,04,29,10.00
2017,09,28,04,30,9.90
2017,09,28,04,31,9.80
2017,09,28,04,32,9.70
2017,09,28,04,33,9.60
2017,09,28,04,34,9.60
2017,09,28,04,35,9.60
2017,09,28,04,36,9.70
2017,09,28,04,37,9.70
2017,09,28,04,38,9.80
2017,09,28,04,39,9.90
2017,09,28,04,40,9.90
2017,09,28,04,41,9.90
2017,09,28,04,42,10.00
2017,09,28,04,43,10.10
2017,09,28,04,44,10.10
2017,09,28,04,45,10.20
2017,09,28,04,46,10.20
2017,09,28,04,47,10.10
2017,09,28,04,48,10.10
2017,09,28,04,49,10.10
2017,09,28,04,50,10.10
2017,09,28,04,51,10.00
2017,09,28,04,52,10.00
2017,09,28,04,53,9.90
2017,09,28,04,54,10.00
2017,09,28,04,55,10.00
2017,09,28,04,56,10.00
2017,09,28,04,57,9.90
2017,09,28,04,58,9.90
2017,09,28,04,59,9.90
2017,09,28,05,00,9.80
2017,09,28,05,01,9.80
2017,09,28,05,02,9.80
2017,09,28,05,03,9.80
2017,09,28,05,04,9.70
2017,09,28,05,05,9.70
2017,09,28,05,06,9.60
2017,09,28,05,07,9.50
2017,09,28,05,08,9.50
2017,09,28,05,09,9.40
2017,09,28,05,10,9.30
2017,09,28,05,11,9.20
2017,09,28,05,12,9.30
2017,09,28,05,13,9.40
2017,09,28,05,14,9.50
2017,09,28,05,15,9.60
2017,09,28,05,16,9.80
2017,09,28,05,17,9.90
2017,09,28,05,18,9.90
2017,09,28,05,19,9.90
2017,09,28,05,20,9.80
2017,09,28,05,21,9.70
2017,09,28,05,22,9.60
2017,09,28,05,23,9.50
2017,09,28,05,24,9.40
2017,09,28,05,25,9.30
2017,09,28,05,26,9.30
2017,09,28,05,27,9.20
2017,09,28,05,28,9.20
2017,09,28,05,29,9.10
2017,09,28,05,30,9.10
2017,09,28,05,31,9.00
2017,09,28,05,32,9.00
2017,09,28,05,33,8.90
2017,09,28,05,34,8.90
2017,09,28,05,35,8.90
2017,09,28,05,36,8.80
2017,09,28,05,37,8.80
2017,09,28,05,38,8.70
2017,09,28,05,39,8.70
2017,09,28,05,40,8.60
2017,09,28,05,41,8.60
2017,09,28,05,42,8.60
2017,09,28,05,43,8.60
2017,09,28,05,44,8.60
2017,09,28,05,45,8.60
2017,09,28,05,46,8.60
2017,09,28,05,47,8.50
2017,09,28,05,48,8.50
2017,09,28,05,49,8.50
2017,09,28,05,50,8.50
2017,09,28,05,51,8.50
2017,09,28,05,52,8.50
2017,09,28,05,53,8.50
2017,09,28,05,54,8.50
2017,09,28,05,55,8.40
2017,09,28,05,56,8.40
2017,09,28,05,57,8.40
2017,09,28,05,58,8.50
2017,09,28,05,59,8.50
2017,09,28,06,00,8.60
2017,09,28,06,01,8.70
2017,09,28,06,02,8.70
2017,09,28,06,03,8.70
2017,09,28,06,04,8.60
2017,09,28,06,05,8.60
2017,09,28,06,06,8.60
2017,09,28,06,07,8.60
2017,09,28,06,08,8.60
2017,09,28,06,09,8.70
2017,09,28,06,10,8.60
2017,09,28,06,11,8.60
2017,09,28,06,12,8.60
2017,09,28,06,13,8.60
2017,09,28,06,14,8.50
2017,09,28,06,15,8.50
2017,09,28,06,16,8.50
2017,09,28,06,17,8.40
2017,09,28,06,18,8.40
2017,09,28,06,19,8.40
2017,09,28,06,20,8.40
2017,09,28,06,21,8.40
2017,09,28,06,22,8.30
2017,09,28,06,23,8.30
2017,09,28,06,24,8.30
2017,09,28,06,25,8.30
2017,09,28,06,26,8.30
2017,09,28,06,27,8.30
2017,09,28,06,28,8.30
2017,09,28,06,29,8.30
2017,09,28,06,30,8.30
2017,09,28,06,31,8.30
2017,09,28,06,32,8.30
2017,09,28,06,33,8.30
2017,09,28,06,34,8.30
2017,09,28,06,35,8.30
2017,09,28,06,36,8.30
2017,09,28,06,37,8.20
2017,09,28,06,38,8.20
2017,09,28,06,39,8.20
2017,09,28,06,40,8.30
2017,09,28,06,41,8.30
2017,09,28,06,42,8.30
2017,09,28,06,43,8.40
2017,09,28,06,44,8.50
2017,09,28,06,45,8.50
2017,09,28,06,46,8.50
2017,09,28,06,47,8.50
2017,09,28,06,48,8.40
2017,09,28,06,49,8.40
2017,09,28,06,50,8.40
2017,09,28,06,51,8.30
2017,09,28,06,52,8.30
2017,09,28,06,53,8.30
2017,09,28,06,54,8.30
2017,09,28,06,55,8.30
2017,09,28,06,56,8.20
2017,09,28,06,57,8.20
2017,09,28,06,58,8.20
2017,09,28,06,59,8.20
2017,09,28,07,00,8.20
2017,09,28,07,01,8.20
2017,09,28,07,02,8.20
2017,09,28,07,03,8.10
2017,09,28,07,04,8.10
2017,09,28,07,05,8.10
2017,09,28,07,06,8.10
2017,09,28,07,07,8.10
2017,09,28,07,08,8.10
2017,09,28,07,09,8.10
2017,09,28,07,10,8.10
2017,09,28,07,11,8.10
2017,09,28,07,12,8.10
2017,09,28,07,13,8.10
2017,09,28,07,14,8.10
2017,09,28,07,15,8.10
2017,09,28,07,16,8.10
2017,09,28,07,17,8.00
2017,09,28,07,18,8.00
2017,09,28,07,19,8.00
2017,09,28,07,20,8.00
2017,09,28,07,21,8.00
2017,09,28,07,22,8.00
2017,09,28,07,23,8.00
2017,09,28,07,24,8.00
2017,09,28,07,25,8.10
2017,09,28,07,26,8.10
2017,09,28,07,27,8.10
2017,09,28,07,28,8.20
2017,09,28,07,29,8.30
2017,09,28,07,30,8.30
2017,09,28,07,31,8.40
2017,09,28,07,32,8.50
2017,09,28,07,33,8.60
2017,09,28,07,34,8.70
2017,09,28,07,35,8.80
2017,09,28,07,36,8.90
2017,09,28,07,37,9.00
2017,09,28,07,38,9.10
2017,09,28,07,39,9.10
2017,09,28,07,40,9.20
2017,09,28,07,41,9.20
2017,09,28,07,42,9.20
2017,09,28,07,43,9.20
2017,09,28,07,44,9.10
2017,09,28,07,45,9.10
2017,09,28,07,46,9.00
2017,09,28,07,47,8.90
2017,09,28,07,48,8.90
2017,09,28,07,49,8.80
2017,09,28,07,50,8.70
2017,09,28,07,51,8.70
2017,09,28,07,52,8.60
2017,09,28,07,53,8.60
2017,09,28,07,54,8.50
2017,09,28,07,55,8.50
2017,09,28,07,56,8.50
2017,09,28,07,57,8.50
2017,09,28,07,58,8.50
2017,09,28,07,59,8.50
2017,09,28,08,00,8.50
2017,09,28,08,01,8.50
2017,09,28,08,02,8.50
2017,09,28,08,03,8.50
2017,09,28,08,04,8.50
2017,09,28,08,05,8.50
2017,09,28,08,06,8.60
2017,09,28,08,07,8.60
2017,09,28,08,08,8.60
2017,09,28,08,09,8.60
2017,09,28,08,10,8.70
2017,09,28,08,11,8.70
2017,09,28,08,12,8.70
2017,09,28,08,13,8.80
2017,09,28,08,14,8.80
2017,09,28,08,15,8.80
2017,09,28,08,16,8.90
2017,09,28,08,17,8.90
2017,09,28,08,18,8.90
2017,09,28,08,19,9.00
2017,09,28,08,20,9.00
2017,09,28,08,21,9.10
2017,09,28,08,22,9.10
2017,09,28,08,23,9.20
2017,09,28,08,24,9.20
2017,09,28,08,25,9.20
2017,09,28,08,26,9.30
2017,09,28,08,27,9.30
2017,09,28,08,28,9.30
2017,09,28,08,29,9.40
2017,09,28,08,30,9.40
2017,09,28,08,31,9.40
2017,09,28,08,32,9.50
2017,09,28,08,33,9.50
2017,09,28,08,34,9.60
2017,09,28,08,35,9.60
2017,09,28,08,36,9.70
2017,09,28,08,37,9.70
2017,09,28,08,38,9.80
2017,09,28,08,39,9.80
2017,09,28,08,40,9.90
2017,09,28,08,41,9.90
2017,09,28,08,42,10.00
2017,09,28,08,43,10.10
2017,09,28,08,44,10.10
2017,09,28,08,45,10.20
2017,09,28,08,46,10.20
2017,09,28,08,47,10.30
2017,09,28,08,48,10.30
2017,09,28,08,49,10.40
2017,09,28,08,50,10.40
2017,09,28,08,51,10.50
2017,09,28,08,52,10.50
2017,09,28,08,53,10.60
2017,09,28,08,54,10.60
2017,09,28,08,55,10.70
2017,09,28,08,56,10.70
2017,09,28,08,57,10.80
2017,09,28,08,58,10.80
2017,09,28,08,59,10.90
2017,09,28,09,00,11.00
2017,09,28,09,01,11.10
2017,09,28,09,02,11.20
2017,09,28,09,03,11.20
2017,09,28,09,04,11.30
2017,09,28,09,05,11.50
2017,09,28,09,06,11.60
2017,09,28,09,07,11.70
2017,09,28,09,08,11.80
2017,09,28,09,09,12.00
2017,09,28,09,10,12.10
2017,09,28,09,11,12.20
2017,09,28,09,12,12.30
2017,09,28,09,13,12.40
2017,09,28,09,14,12.50
2017,09,28,09,15,12.60
2017,09,28,09,16,12.70
2017,09,28,09,17,12.80
2017,09,28,09,18,12.80
2017,09,28,09,19,12.90
2017,09,28,09,20,13.00
2017,09,28,09,21,13.10
2017,09,28,09,22,13.10
2017,09,28,09,23,13.20
2017,09,28,09,24,13.20
2017,09,28,09,25,13.20
2017,09,28,09,26,13.20
2017,09,28,09,27,13.20
2017,09,28,09,28,13.20
2017,09,28,09,29,13.30
2017,09,28,09,30,13.30
2017,09,28,09,31,13.30
2017,09,28,09,32,13.30
2017,09,28,09,33,13.30
2017,09,28,09,34,13.30
2017,09,28,09,35,13.30
2017,09,28,09,36,13.30
2017,09,28,09,37,13.30
2017,09,28,09,38,13.40
2017,09,28,09,39,13.40
2017,09,28,09,40,13.40
2017,09,28,09,41,13.40
2017,09,28,09,42,13.50
2017,09,28,09,43,13.50
2017,09,28,09,44,13.60
2017,09,28,09,45,13.60
2017,09,28,09,46,13.60
2017,09,28,09,47,13.70
2017,09,28,09,48,13.70
2017,09,28,09,49,13.80
2017,09,28,09,50,13.80
2017,09,28,09,51,13.90
2017,09,28,09,52,13.90
2017,09,28,09,53,14.00
2017,09,28,09,54,14.10
2017,09,28,09,55,14.10
2017,09,28,09,56,14.20
2017,09,28,09,57,14.20
2017,09,28,09,58,14.30
2017,09,28,09,59,14.30
2017,09,28,10,00,14.40
2017,09,28,10,01,14.40
2017,09,28,10,02,14.50
2017,09,28,10,03,14.50
2017,09,28,10,04,14.60
2017,09,28,10,05,14.70
2017,09,28,10,06,14.80
2017,09,28,10,07,14.80
2017,09,28,10,08,14.90
2017,09,28,10,09,15.00
2017,09,28,10,10,15.00
2017,09,28,10,11,15.10
2017,09,28,10,12,15.20
2017,09,28,10,13,15.20
2017,09,28,10,14,15.30
2017,09,28,10,15,15.30
2017,09,28,10,16,15.40
2017,09,28,10,17,15.40
2017,09,28,10,18,15.50
2017,09,28,10,19,15.50
2017,09,28,10,20,15.60
2017,09,28,10,21,15.60
2017,09,28,10,22,15.70
2017,09,28,10,23,15.70
2017,09,28,10,24,15.70
2017,09,28,10,25,15.80
2017,09,28,10,26,15.80
2017,09,28,10,27,15.90
2017,09,28,10,28,15.90
2017,09,28,10,29,15.90
2017,09,28,10,30,15.90
2017,09,28,10,31,15.90
2017,09,28,10,32,15.90
2017,09,28,10,33,15.90
2017,09,28,10,34,15.90
2017,09,28,10,35,16.00
2017,09,28,10,36,16.00
2017,09,28,10,37,16.10
2017,09,28,10,38,16.10
2017,09,28,10,39,16.10
2017,09,28,10,40,16.10
2017,09,28,10,41,16.10
2017,09,28,10,42,16.20
2017,09,28,10,43,16.20
2017,09,28,10,44,16.20
2017,09,28,10,45,16.20
2017,09,28,10,46,16.20
2017,09,28,10,47,16.20
2017,09,28,10,48,16.30
2017,09,28,10,49,16.30
2017,09,28,10,50,16.30
2017,09,28,10,51,16.30
2017,09,28,10,52,16.30
2017,09,28,10,53,16.20
2017,09,28,10,54,16.20
2017,09,28,10,55,16.20
2017,09,28,10,56,16.20
2017,09,28,10,57,16.30
2017,09,28,10,58,16.30
2017,09,28,10,59,16.30
2017,09,28,11,00,16.30
2017,09,28,11,01,16.30
2017,09,28,11,02,16.30
2017,09,28,11,03,16.30
2017,09,28,11,04,16.30
2017,09,28,11,05,16.40
2017,09,28,11,06,16.40
2017,09,28,11,07,16.40
2017,09,28,11,08,16.30
2017,09,28,11,09,16.30
2017,09,28,11,10,16.30
2017,09,28,11,11,16.30
2017,09,28,11,12,16.30
2017,09,28,11,13,16.30
2017,09,28,11,14,16.40
2017,09,28,11,15,16.40
2017,09,28,11,16,16.40
2017,09,28,11,17,16.40
2017,09,28,11,18,16.50
2017,09,28,11,19,16.50
2017,09,28,11,20,16.60
2017,09,28,11,21,16.60
2017,09,28,11,22,16.70
2017,09,28,11,23,16.70
2017,09,28,11,24,16.80
2017,09,28,11,25,16.90
2017,09,28,11,26,17.00
2017,09,28,11,27,17.10
2017,09,28,11,28,17.10
2017,09,28,11,29,17.20
2017,09,28,11,30,17.20
2017,09,28,11,31,17.30
2017,09,28,11,32,17.30
2017,09,28,11,33,17.20
2017,09,28,11,34,17.20
2017,09,28,11,35,17.10
2017,09,28,11,36,17.10
2017,09,28,11,37,17.00
2017,09,28,11,38,17.00
2017,09,28,11,39,17.00
2017,09,28,11,40,17.00
2017,09,28,11,41,17.00
2017,09,28,11,42,17.00
2017,09,28,11,43,17.00
2017,09,28,11,44,17.00
2017,09,28,11,45,16.90
2017,09,28,11,46,16.90
2017,09,28,11,47,16.90
2017,09,28,11,48,16.90
2017,09,28,11,49,17.00
2017,09,28,11,50,17.10
2017,09,28,11,51,17.10
2017,09,28,11,52,17.10
2017,09,28,11,53,17.10
2017,09,28,11,54,17.10
2017,09,28,11,55,17.20
2017,09,28,11,56,17.20
2017,09,28,11,57,17.20
2017,09,28,11,58,17.20
2017,09,28,11,59,17.20
2017,09,28,12,00,17.20
2017,09,28,12,01,17.20
2017,09,28,12,02,17.30
2017,09,28,12,03,17.30
2017,09,28,12,04,17.30
2017,09,28,12,05,17.30
2017,09,28,12,06,17.30
2017,09,28,12,07,17.20
2017,09,28,12,08,17.20
2017,09,28,12,09,17.20
2017,09,28,12,10,17.20
2017,09,28,12,11,17.10
2017,09,28,12,12,17.20
2017,09,28,12,13,17.20
2017,09,28,12,14,17.20
2017,09,28,12,15,17.30
2017,09,28,12,16,17.30
2017,09,28,12,17,17.40
2017,09,28,12,18,17.40
2017,09,28,12,19,17.40
2017,09,28,12,20,17.40
2017,09,28,12,21,17.40
2017,09,28,12,22,17.40
2017,09,28,12,23,17.40
2017,09,28,12,24,17.40
2017,09,28,12,25,17.40
2017,09,28,12,26,17.40
2017,09,28,12,27,17.40
2017,09,28,12,28,17.40
2017,09,28,12,29,17.40
2017,09,28,12,30,17.40
2017,09,28,12,31,17.40
2017,09,28,12,32,17.40
2017,09,28,12,33,17.50
2017,09,28,12,34,17.50
2017,09,28,12,35,17.50
2017,09,28,12,36,17.60
2017,09,28,12,37,17.60
2017,09,28,12,38,17.60
2017,09,28,12,39,17.60
2017,09,28,12,40,17.60
2017,09,28,12,41,17.70
2017,09,28,12,42,17.70
2017,09,28,12,43,17.70
2017,09,28,12,44,17.70
2017,09,28,12,45,17.70
2017,09,28,12,46,17.70
2017,09,28,12,47,17.70
2017,09,28,12,48,17.70
2017,09,28,12,49,17.70
2017,09,28,12,50,17.70
2017,09,28,12,51,17.70
2017,09,28,12,52,17.70
2017,09,28,12,53,17.70
2017,09,28,12,54,17.70
2017,09,28,12,55,17.70
2017,09,28,12,56,17.70
2017,09,28,12,57,17.60
2017,09,28,12,58,17.60
2017,09,28,12,59,17.60
2017,09,28,13,00,17.60
2017,09,28,13,01,17.60
2017,09,28,13,02,17.70
2017,09,28,13,03,17.70
2017,09,28,13,04,17.80
2017,09,28,13,05,17.80
2017,09,28,13,06,17.80
2017,09,28,13,07,17.90
2017,09,28,13,08,17.90
2017,09,28,13,09,17.90
2017,09,28,13,10,18.00
2017,09,28,13,11,18.00
2017,09,28,13,12,17.90
2017,09,28,13,13,17.90
2017,09,28,13,14,17.80
2017,09,28,13,15,17.70
2017,09,28,13,16,17.70
2017,09,28,13,17,17.60
2017,09,28,13,18,17.60
2017,09,28,13,19,17.60
2017,09,28,13,20,17.50
2017,09,28,13,21,17.50
2017,09,28,13,22,17.40
2017,09,28,13,23,17.40
2017,09,28,13,24,17.30
2017,09,28,13,25,17.30
2017,09,28,13,26,17.20
2017,09,28,13,27,17.20
2017,09,28,13,28,17.20
2017,09,28,13,29,17.20
2017,09,28,13,30,17.10
2017,09,28,13,31,17.00
2017,09,28,13,32,16.90
2017,09,28,13,33,16.80
2017,09,28,13,34,16.80
2017,09,28,13,35,16.80
2017,09,28,13,36,16.90
2017,09,28,13,37,16.90
2017,09,28,13,38,16.90
2017,09,28,13,39,16.90
2017,09,28,13,40,16.80
2017,09,28,13,41,16.80
2017,09,28,13,42,16.80
2017,09,28,13,43,16.80
2017,09,28,13,44,16.80
2017,09,28,13,45,16.80
2017,09,28,13,46,16.80
2017,09,28,13,47,16.80
2017,09,28,13,48,16.80
2017,09,28,13,49,16.80
2017,09,28,13,50,16.80
2017,09,28,13,51,16.80
2017,09,28,13,52,16.90
2017,09,28,13,53,16.90
2017,09,28,13,54,16.90
2017,09,28,13,55,17.00
2017,09,28,13,56,17.00
2017,09,28,13,57,17.00
2017,09,28,13,58,17.10
2017,09,28,13,59,17.10
2017,09,28,14,00,17.10
2017,09,28,14,01,17.10
2017,09,28,14,02,17.10
2017,09,28,14,03,17.20
2017,09,28,14,04,17.20
2017,09,28,14,05,17.30
2017,09,28,14,06,17.30
2017,09,28,14,07,17.30
2017,09,28,14,08,17.20
2017,09,28,14,09,17.20
2017,09,28,14,10,17.10
2017,09,28,14,11,17.10
2017,09,28,14,12,17.10
2017,09,28,14,13,17.10
2017,09,28,14,14,17.10
2017,09,28,14,15,17.10
2017,09,28,14,16,17.10
2017,09,28,14,17,17.20
2017,09,28,14,18,17.20
2017,09,28,14,19,17.30
2017,09,28,14,20,17.30
2017,09,28,14,21,17.40
2017,09,28,14,22,17.40
2017,09,28,14,23,17.40
2017,09,28,14,24,17.40
2017,09,28,14,25,17.40
2017,09,28,14,26,17.40
2017,09,28,14,27,17.30
2017,09,28,14,28,17.30
2017,09,28,14,29,17.30
2017,09,28,14,30,17.20
2017,09,28,14,31,17.10
2017,09,28,14,32,17.10
2017,09,28,14,33,17.10
2017,09,28,14,34,17.20
2017,09,28,14,35,17.20
2017,09,28,14,36,17.20
2017,09,28,14,37,17.20
2017,09,28,14,38,17.20
2017,09,28,14,39,17.20
2017,09,28,14,40,17.20
2017,09,28,14,41,17.20
2017,09,28,14,42,17.20
2017,09,28,14,43,17.20
2017,09,28,14,44,17.20
2017,09,28,14,45,17.20
2017,09,28,14,46,17.20
2017,09,28,14,47,17.20
2017,09,28,14,48,17.20
2017,09,28,14,49,17.20
2017,09,28,14,50,17.20
2017,09,28,14,51,17.20
2017,09,28,14,52,17.20
2017,09,28,14,53,17.20
2017,09,28,14,54,17.10
2017,09,28,14,55,17.10
2017,09,28,14,56,17.00
2017,09,28,14,57,17.00
2017,09,28,14,58,16.90
2017,09,28,14,59,16.90
2017,09,28,15,00,16.90
2017,09,28,15,01,16.90
2017,09,28,15,02,16.90
2017,09,28,15,03,16.90
2017,09,28,15,04,16.80
2017,09,28,15,05,16.80
2017,09,28,15,06,16.80
2017,09,28,15,07,16.80
2017,09,28,15,08,16.80
2017,09,28,15,09,16.80
2017,09,28,15,10,16.80
2017,09,28,15,11,16.80
2017,09,28,15,12,16.80
2017,09,28,15,13,16.80
2017,09,28,15,14,16.80
2017,09,28,15,15,16.80
2017,09,28,15,16,16.80
2017,09,28,15,17,16.80
2017,09,28,15,18,16.90
2017,09,28,15,19,16.90
2017,09,28,15,20,16.90
2017,09,28,15,21,16.90
2017,09,28,15,22,16.90
2017,09,28,15,23,17.00
2017,09,28,15,24,17.00
2017,09,28,15,25,17.10
2017,09,28,15,26,17.10
2017,09,28,15,27,17.10
2017,09,28,15,28,17.10
2017,09,28,15,29,17.20
2017,09,28,15,30,17.10
2017,09,28,15,31,17.10
2017,09,28,15,32,17.10
2017,09,28,15,33,17.20
2017,09,28,15,34,17.20
2017,09,28,15,35,17.20
2017,09,28,15,36,17.20
2017,09,28,15,37,17.20
2017,09,28,15,38,17.20
2017,09,28,15,39,17.20
2017,09,28,15,40,17.20
2017,09,28,15,41,17.20
2017,09,28,15,42,17.30
2017,09,28,15,43,17.30
2017,09,28,15,44,17.30
2017,09,28,15,45,17.30
2017,09,28,15,46,17.40
2017,09,28,15,47,17.40
2017,09,28,15,48,17.40
2017,09,28,15,49,17.50
2017,09,28,15,50,17.50
2017,09,28,15,51,17.60
2017,09,28,15,52,17.60
2017,09,28,15,53,17.70
2017,09,28,15,54,17.70
2017,09,28,15,55,17.70
2017,09,28,15,56,17.80
2017,09,28,15,57,17.80
2017,09,28,15,58,17.90
2017,09,28,15,59,17.90
2017,09,28,16,00,17.90
2017,09,28,16,01,17.90
2017,09,28,16,02,17.90
2017,09,28,16,03,17.90
2017,09,28,16,04,17.90
2017,09,28,16,05,17.90
2017,09,28,16,06,18.00
2017,09,28,16,07,18.00
2017,09,28,16,08,18.00
2017,09,28,16,09,18.00
2017,09,28,16,10,18.10
2017,09,28,16,11,18.10
2017,09,28,16,12,18.10
2017,09,28,16,13,18.10
2017,09,28,16,14,18.20
2017,09,28,16,15,18.30
2017,09,28,16,16,18.30
2017,09,28,16,17,18.40
2017,09,28,16,18,18.50
2017,09,28,16,19,18.50
2017,09,28,16,20,18.60
2017,09,28,16,21,18.60
2017,09,28,16,22,18.60
2017,09,28,16,23,18.70
2017,09,28,16,24,18.70
2017,09,28,16,25,18.80
2017,09,28,16,26,18.80
2017,09,28,16,27,18.80
2017,09,28,16,28,18.90
2017,09,28,16,29,18.90
2017,09,28,16,30,19.00
2017,09,28,16,31,19.10
2017,09,28,16,32,19.20
2017,09,28,16,33,19.30
2017,09,28,16,34,19.30
2017,09,28,16,35,19.40
2017,09,28,16,36,19.40
2017,09,28,16,37,19.50
2017,09,28,16,38,19.50
2017,09,28,16,39,19.60
2017,09,28,16,40,19.60
2017,09,28,16,41,19.50
2017,09,28,16,42,19.50
2017,09,28,16,43,19.50
2017,09,28,16,44,19.40
2017,09,28,16,45,19.40
2017,09,28,16,46,19.40
2017,09,28,16,47,19.40
2017,09,28,16,48,19.30
2017,09,28,16,49,19.30
2017,09,28,16,50,19.30
2017,09,28,16,51,19.30
2017,09,28,16,52,19.30
2017,09,28,16,53,19.30
2017,09,28,16,54,19.30
2017,09,28,16,55,19.30
2017,09,28,16,56,19.30
2017,09,28,16,57,19.30
2017,09,28,16,58,19.20
2017,09,28,16,59,19.20
2017,09,28,17,00,19.20
2017,09,28,17,01,19.20
2017,09,28,17,02,19.20
2017,09,28,17,03,19.20
2017,09,28,17,04,19.20
2017,09,28,17,05,19.20
2017,09,28,17,06,19.20
2017,09,28,17,07,19.20
2017,09,28,17,08,19.20
2017,09,28,17,09,19.20
2017,09,28,17,10,19.20
2017,09,28,17,11,19.20
2017,09,28,17,12,19.20
2017,09,28,17,13,19.20
2017,09,28,17,14,19.20
2017,09,28,17,15,19.20
2017,09,28,17,16,19.20
2017,09,28,17,17,19.20
2017,09,28,17,18,19.20
2017,09,28,17,19,19.20
2017,09,28,17,20,19.20
2017,09,28,17,21,19.20
2017,09,28,17,22,19.10
2017,09,28,17,23,19.10
2017,09,28,17,24,19.10
2017,09,28,17,25,19.00
2017,09,28,17,26,19.00
2017,09,28,17,27,19.00
2017,09,28,17,28,18.90
2017,09,28,17,29,18.90
2017,09,28,17,30,18.90
2017,09,28,17,31,18.90